This demonstration page uses our WeatherBlox Daily Observations layout. Learn more.

Left ArrowRight Arrow

38.20091, -84.87328

Hourly Observations for April 10, 2020

Temp ( °F °C ) Dew Point ( °F °C ) Humidity (%) Winds ( mph kmh ) Pressure ( in mb ) Visibility ( mi km ) Precip ( " mm )
12:53 am 00:53 Cloudy with Light Rain 40 4.4 33 0.6 77 77 NW 17 28 29.90 1013 10 16 0.01 0.25
1:32 am 01:32 Cloudy 37 2.8 30 -1.1 76 76 W 6 9 29.93 1014 9 14 0.00 0.00
1:53 am 01:53 Cloudy 38 3.3 30 -1.1 73 73 WNW 8 13 29.91 1013 10 16 0.00 0.00
2:53 am 02:53 Clear 38 3.3 29 -1.7 70 70 WNW 9 15 29.92 1013 10 16 0.00 0.00
3:53 am 03:53 Mostly Clear 37 2.8 27 -2.8 67 67 NW 8 13 29.93 1014 10 16 0.00 0.00
4:53 am 04:53 Clear 37 2.8 26 -3.3 65 65 WNW 7 11 29.96 1015 10 16 0.00 0.00
5:53 am 05:53 Clear 36 2.2 26 -3.3 67 67 WNW 8 13 29.98 1015 10 16 0.00 0.00
6:53 am 06:53 Clear 35 1.7 25 -3.9 67 67 WNW 8 13 30.00 1016 10 16 0.00 0.00
7:53 am 07:53 Sunny 35 1.7 25 -3.9 67 67 W 6 9 30.02 1017 10 16 0.00 0.00
8:53 am 08:53 Sunny 37 2.8 26 -3.3 65 65 NW 12 19 30.05 1018 10 16 0.00 0.00
9:53 am 09:53 Mostly Sunny 40 4.4 26 -3.3 58 58 WNW 9 15 30.08 1019 10 16 0.00 0.00
10:53 am 10:53 Mostly Sunny 43 6.1 27 -2.8 53 53 NW 12 19 30.09 1019 10 16 0.00 0.00
11:53 am 11:53 Partly Cloudy 45 7.2 24 -4.4 44 44 NW 7 11 30.11 1020 10 16 0.00 0.00
12:53 pm 12:53 Mostly Cloudy 47 8.3 23 -5 39 39 NW 12 19 30.09 1019 10 16 0.00 0.00
1:53 pm 13:53 Partly Cloudy 48 8.9 24 -4.4 39 39 NNW 12 19 30.08 1019 10 16 0.00 0.00
2:53 pm 14:53 Mostly Sunny 49 9.4 24 -4.4 38 38 W 9 15 30.06 1018 10 16 0.00 0.00
3:53 pm 15:53 Mostly Sunny 51 10.6 25 -3.9 36 36 W 14 22 30.04 1017 10 16 0.00 0.00
4:53 pm 16:53 Sunny 52 11.1 24 -4.4 34 34 WNW 14 22 30.03 1017 10 16 0.00 0.00
5:53 pm 17:53 Sunny 52 11.1 23 -5 32 32 WNW 9 15 30.02 1017 10 16 0.00 0.00
6:53 pm 18:53 Sunny 52 11.1 23 -5 32 32 WNW 8 13 30.02 1017 10 16 0.00 0.00
7:53 pm 19:53 Sunny 50 10 23 -5 35 35 WNW 7 11 30.01 1016 10 16 0.00 0.00
8:53 pm 20:53 Clear 46 7.8 25 -3.9 44 44 WNW 3 6 30.02 1017 10 16 0.00 0.00
9:53 pm 21:53 Clear 42 5.6 27 -2.8 55 55 W 5 7 30.03 1017 10 16 0.00 0.00
10:53 pm 22:53 Clear 37 2.8 28 -2.2 70 70 Calm 30.04 1017 10 16 0.00 0.00
11:53 pm 23:53 Clear 38 3.3 28 -2.2 68 68 Calm 30.04 1017 10 16 0.00 0.00

Powered by AerisWeather